This is the latest recevied weather packets stored in our database for station/object KC3WWU. If no packets are shown the sender has not sent any weather packets the latest 10 day(s).
| Time | Temp. | Humidity | Pressure | Rain* | Wind** | Luminosity | Snow |
|---|---|---|---|---|---|---|---|
| 1777979095 | 14.44° C | 80% | 1007.6 hPa | 0 mm | - | 29 W/m² | - |
| 1777978792 | 14.44° C | 81% | 1007.7 hPa | 0 mm | - | 23 W/m² | - |
| 1777978488 | 13.89° C | 82% | 1007.4 hPa | 0 mm | - | 27 W/m² | - |
| 1777978184 | 13.33° C | 84% | 1007.7 hPa | 0 mm | - | 18 W/m² | - |
| 1777977882 | 13.33° C | 86% | 1007.5 hPa | 0 mm | - | 13 W/m² | - |
| 1777977578 | 13.33° C | 86% | 1007.2 hPa | 0 mm | - | 13 W/m² | - |
| 1777977276 | 13.33° C | 88% | 1007.4 hPa | 0 mm | - | 10 W/m² | - |
| 1777976973 | 13.33° C | 86% | 1007.3 hPa | 0 mm | - | 9 W/m² | - |
| 1777976670 | 13.89° C | 86% | 1007.2 hPa | 0 mm | - | 5 W/m² | - |
| 1777976367 | 13.33° C | 87% | 1007.2 hPa | 0 mm | - | 4 W/m² | - |
| 1777976066 | 13.89° C | 84% | 1007.3 hPa | 0 mm | - | 2 W/m² | - |
| 1777975762 | 13.89° C | 83% | 1007.1 hPa | 0 mm | - | 1 W/m² | - |
| 1777975459 | 13.89° C | 83% | 1007 hPa | 0 mm | - | 1 W/m² | - |
| 1777975155 | 13.89° C | 81% | 1006.8 hPa | 0 mm | - | 0 W/m² | - |
| 1777974852 | 13.89° C | 81% | 1006.8 hPa | 0 mm | - | 0 W/m² | - |
| 1777974548 | 13.89° C | 85% | 1006.6 hPa | 0 mm | - | 0 W/m² | - |
| 1777974246 | 13.33° C | 81% | 1006.9 hPa | 0 mm | - | 0 W/m² | - |
| 1777973941 | 13.33° C | 84% | 1006.8 hPa | 0 mm | - | 0 W/m² | - |
| 1777973639 | 13.33° C | 82% | 1006.9 hPa | 0 mm | - | 0 W/m² | - |
| 1777973336 | 12.78° C | 87% | 1007.1 hPa | 0 mm | - | 0 W/m² | - |
| 1777973034 | 13.33° C | 87% | 1006.9 hPa | 0 mm | - | 0 W/m² | - |
| 1777972730 | 13.33° C | 82% | 1007 hPa | 0 mm | - | 0 W/m² | - |
| 1777972429 | 13.33° C | 87% | 1006.9 hPa | 0 mm | - | 0 W/m² | - |
| 1777972126 | 14.44° C | 80% | 1006.8 hPa | 0 mm | - | 0 W/m² | - |
| 1777971825 | 13.89° C | 79% | 1006.8 hPa | 0 mm | - | 0 W/m² | - |
* Rain latest hour (hover to see other rain measurements)
** Current wind speed in m/s (hover to see current wind gust speed)